FENGYUN 1C DEB

Satellite information

Favourite Embed

Satellite Type and Status

DEBRISIN ORBIT

Key statistics

Satellite FENGYUN 1C DEB at a glance.

Uptime

9619

Days in orbit

Revolutions

≈ 15.1

Per day

Orbit

SSO

Sun Synchronous Orbit

Inclination

98.2

Latest

Satellite identification and parameters

Extended collection of information and parameters for FENGYUN 1C DEB.

Object identification

Identified? True

Debris? True

Object name: FENGYUN 1C DEB

International designator: 1999-025MU

Object number (NORAD): 30019

Object ID (CCSDS): 30019

Country: PEOPLES REPUBLIC OF CHINA (PRC)

Current information (Y/N): Y

RCS size: SMALL

Orbital parameters

Period: 95.13 minutes

Inclination: 98.1746 deg

SMA: 6903.007 km

Apoapsis: 548.775 km

Periapsis: 500.969 km

RAAN: 224.2469 deg

Eccentricy: 0.00346272

Argument of periapsis: 306.8501 deg

Mean anomaly: 52.9555 deg

Mean motion: 15.13719067 rev/day

Mean motion (dot): 0.00147846 rev/day2

B* drag term: 0.0079410864 1/REarth

Two-line elements (TLE)

Creation date: Sept. 8, 2025, 6:18 p.m.

Reference frame: TEME

Reference center: EARTH

Epoch: Sept. 8, 2025, 11:02 a.m. UTC

TLE line 0: 0 FENGYUN 1C DEB

TLE line 1: 1 30019U 99025MU 25251.46037685 .00147846 00000-0 79411-2 0 9996

TLE line 2: 2 30019 98.1746 224.2469 0034627 306.8501 52.9555 15.13719067969784

Live tracking on map

Real-time ground track for satellite FENGYUN 1C DEB.

In-orbit conjunctions

A list of the most updated potential collisions computed for object FENGYUN 1C DEB.

Target Orbit TCA Probability of collision Miss distance Type
COSMOS 192 LEO 2024-12-19 03:34:54 0.0007206013 304.0 (m) PAYLOAD
SL-8 DEB * LEO 2024-06-12 17:33:51 0.0001274435 241.0 (m) DEBRIS

Associated space launch

Chinese polar orbiting meteorological satellite

FENGYUN 1C DEB was lifted into orbit during the mission ‘Long March 4B | Feng Yun 1C’, on board a Long March 4B space rocket.

The launch took place on May 10, 1999, 1:33 a.m. from Launch Complex 7.

For more information about the launch, click the button.

Launch to space Long March 4B | Feng Yun 1C
Long March 4B | Feng Yun 1C

Agency: N/A

Status: Launch Successful

Launch date: May 10, 1999, 1:33 a.m. UTC

Rocket: Long March 4B

Launch pad: Launch Complex 7

Location: Taiyuan Satellite Launch Center, People's Republic of China

...

Latest news about this satellite

There are no fresh news available about this satellite. Check back as we update our databases every day.


Newsletter sign-up

Weekly statistics, charts and insights to help you stay on top of the space industry.